Regional Weather Roundup
Issued by NWS

Home | Current Version | Previous Version | Graphics & Text | Print | Product List | Glossary On
Versions: 1 2 3 4 5 6 7 8 9 10 11 12 13 14 15 16 17 18 19 20 21 22 23 24 25 26 27 28 29 30 31 32 33 34 35 36 37 38 39 40 41 42 43 44 45 46 47 48 49 50
000
ASUS45 KPSR 282300
RWRAZ

PRELIMINARY ARIZONA REGIONAL HOURLY WEATHER ROUNDUP
NATIONAL WEATHER SERVICE PHOENIX AZ
400 PM MST MON JUL 28 2014

NOTE: FAIR INDICATES FEW OR NO CLOUDS BELOW 12,000 FEET WITH NO
SIGNIFICANT WEATHER AND/OR OBSTRUCTIONS TO VISIBILITY.

AZZ001>003-036-290000-
NORTHWEST ARIZONA

CITY           SKY/WX    TMP DP  RH WIND       PRES   REMARKS
KINGMAN        PTSUNNY   89  57  33 E20       30.11F
$$

AZZ004>008-015-016-018-290000-
NORTH CENTRAL ARIZONA

CITY           SKY/WX    TMP DP  RH WIND       PRES   REMARKS
GRAND CANYON   CLOUDY    67  54  63 NW8       30.41S
WILLIAMS       CLOUDY    68  55  64 CALM      30.46F
PRESCOTT       PTSUNNY   78  55  44 W16       30.25F THUNDER
FLAGSTAFF      CLOUDY    68  52  56 W8        30.41F
PAYSON         PTSUNNY   86  50  28 SW9       30.26F
PAGE           CLOUDY    91  49  23 W6G16     30.15F
$$

AZZ009>014-017-290000-
NORTHEAST ARIZONA

CITY           SKY/WX    TMP DP  RH WIND       PRES   REMARKS
WINSLOW        NOT AVBL
SAINT JOHNS    CLOUDY    80  50  34 VRB5      30.29F
WINDOW ROCK    MOSUNNY   79  52  38 SW8       30.37F
$$

AZZ023-290000-
GREATER PHOENIX AREA

CITY           SKY/WX    TMP DP  RH WIND       PRES   REMARKS
PHOENIX        MOSUNNY  106  54  17 CALM      29.91F HX 104
BUCKEYE          N/A    102  55  21 S8        29.93F HX 101
GLENDALE       MOSUNNY  104  57  21 MISG      29.93F HX 103
DEER VALLEY    SUNNY    100  53  20 VRB3      29.94F
SCOTTSDALE     SUNNY    101  56  22 CALM      29.96F HX 100
MESA-FALCON    MOSUNNY   95  57  28 W9        29.95F
MESA-GATEWAY   MOSUNNY  102  59  24 NW6       29.96F HX 102
CHANDLER       PTSUNNY  104  57  21 S8        29.94F HX 103
$$

AZZ027-028-290000-
SOUTHWEST MARICOPA COUNTY AND PINAL COUNTY

CITY           SKY/WX    TMP DP  RH WIND       PRES   REMARKS
CASA GRANDE    SUNNY    100  61  27 CALM      29.97F HX 101
GILA BEND      PTCLDY   106  59  21 VRB5      29.92F HX 106
$$

AZZ503-504-507>509-290000-
SOUTHEAST ARIZONA

CITY           SKY/WX    TMP DP  RH WIND       PRES   REMARKS
TUCSON         CLOUDY    93  60  33 S8        30.09F
DAVIS-MONTHAN  SUNNY     91  59  33 NW1       30.08F
NOGALES        CLOUDY    85  60  42 W3        30.18F
SIERRA VISTA   PTSUNNY   82  59  44 VRB3      30.24F
SAFFORD        MOSUNNY   92  55  28 S5        30.10F
$$

AZZ020-021-025-026-031-290000-
SOUTHWEST ARIZONA

CITY           SKY/WX    TMP DP  RH WIND       PRES   REMARKS
YUMA           NOT AVBL
$$

CAZ031-033-041-043-047-048-061-290000-
SOUTHERN CALIFORNIA

CITY           SKY/WX    TMP DP  RH WIND       PRES   REMARKS
DOWNTOWN L.A.  MOSUNNY   82  53  36 W6        30.00F
L.A. AIRPORT   MOSUNNY   76  58  53 W14       30.02F
SAN DIEGO      MOSUNNY   81  67  62 W13       30.01F
BURBANK        MOSUNNY   87  44  22 S10       30.01F
ONTARIO        PTSUNNY   94  50  22 W14       30.00F
RIVERSIDE      PTSUNNY   94  38  14 W12       30.00F
PALM SPRINGS   PTSUNNY  102  60  25 W3        29.91F HX 103
EL CENTRO NAS  MOSUNNY  106  56  19 CALM      29.84F HX 105
IMPERIAL       MOSUNNY  106  59  21 E9        29.83F HX 106
BLYTHE           N/A    N/A N/A N/A MISG      29.86F
$$

NVZ020-UTZ003-290000-
SOUTHERN NEVADA-UTAH

CITY           SKY/WX    TMP DP  RH WIND       PRES   REMARKS
LAS VEGAS      NOT AVBL
SALT LAKE CITY CLOUDY    80  53  39 E17G25    30.19R
$$

NMZ009-TXZ055-290000-
NEW MEXICO-WEST TEXAS

CITY           SKY/WX    TMP DP  RH WIND       PRES   REMARKS
ALBUQUERQUE    PTSUNNY   85  50  29 SW13      30.28F
EL PASO        PTSUNNY   92  56  29 E17       30.15F
$$


........................KEY........................
SKY/WX - SKY CONDITION/WEATHER
TMP    - TEMPERATURE IN FAHRENHEIT
DP     - DEW POINT IN FAHRENHEIT
RH     - RELATIVE HUMIDITY IN PERCENT
WIND   - DIRECTION AND SPEED IN MILES PER HOUR (MPH)
VRB    - VARIABLE WIND DIRECTION
PRES   - MEAN SEA LEVEL PRESSURE IN INCHES OF MERCURY
         F - FALLING PRESSURE   R - RISING PRESSURE
         S - STEADY PRESSURE
VSB    - VISIBILITY IN MILES
HX     - HEAT INDEX IN FAHRENHEIT
WCI    - WIND CHILL INDEX IN FAHRENHEIT
TC     - TEMPERATURE IN CELSIUS WHICH IS ALSO KNOWN AS
         TEMPERATURE IN CENTIGRADE
AFB    - AIR FORCE BASE
         LUKE AFB IS LUKE AIR FORCE BASE
         DAVIS-MONTHAN IS DAVIS-MONTHAN AIR FORCE BASE
NAS    - NAVAL AIR STATION
         EL CENTRO NAS IS EL CENTRO NAVAL AIR STATION
N/A    - NOT AVAILABLE


USA.gov is the U.S. government's official web portal to all federal, state and local government web resources and services.